Find Starlink 1152

NORAD ID: 45096 Int'l Des: 2020-006 Owner: SPXS Country: US Constellation: starlink operational
LEOCIRCULAR

Live Position

Loading 3D Globe...

About Starlink 1152

Description loading...

Upcoming Passes

Passes for default location (London). Set your location on the main map for personalized predictions.

Altitude History

Loading altitude history...

Two-Line Element Set

1 45096U 20006BE 26111.98083616 .00058187 00000-0 12786-2 0 9999
2 45096 53.0396 1.4328 0002740 60.1676 299.9601 15.43475861344268
Epoch: Apr 21, 2026 • Age: 19 hours

Current Status

Altitude 434.6 km
Velocity 7.65 km/s
Sub-Earth Point 20.19°N, 111.59°W
Launch Date Jan 29, 2020
Age 6.2 years
Type internet

Technical Details

Classification Payload
Mass 260.00 kg
Dry Mass 248.00 kg
Total Mass 260.00 kg
Length 0.20 m
Diameter 2.80 m
Span 9.00 m
Shape Box + pan
Manufacturer SPXS
Bus Type Starlink
Phase Status In Orbit
Owner/State SPXS/US

Most Searched